Погода в Астраханке

Погода в Астраханке : погода сейчас, прогноз погоды и архив. Всё, что Вы хотите узнать о погоде в Астраханке!

Хотите узнать прогноз погоды в Астраханке? Тогда Вам сюда: Погода в Астраханке

Поиск расширенной информации на нашем сайте:

Другие новости

Новости СМИ2

Главная страница сайта

Новости сайта

03.07.2017

Напоминаем, что на нашем специализированном сайте Метеоцентр.Азия вы можете получить высокодетализированные автоматические прогнозы погоды по пунктам России, СНГ и мира в авиационном формате (включающие направление и скорость ветра, видимость, явления погоды, количество и форму облачности, нижнюю и верхнюю границу облачности).


Погода в Астраханке - сегодня

Время (UTC), дата Ветер
(°,м/с) 
Видим.   Явления Облачность Т
(°С)
Тd
(°С)
f(%) Тe
(°С)
Pmin
(гПа)
dP
(гПа)
Po
(мм)
O2
(г/м3)
Тmin Tmax R s Состояние
почвы
00 15.04.18 340 (С) 10 км  ледяной дождь (гололёд){снег}  10/8 300 м средняя 
[Frnb|As op]
+1 +0.6 97 -3  1005.5  1.4  747  300           
03 15.04.18 040 (СВ) 10 км  слаб. ливневой дождь{снег}  10/10 300 м кучево-дожд. 
[Cb cap]
+1.9 +1.4 96 1006.2  0.7  747  299           
06 15.04.18 тихо ()   10 км  слаб. дождь{ливн. осадки, снег}  10/8 300 м средняя 
[Frnb|As op]
+2.9 +2.2 95 +3  1006.5  0.4  748  298           
12 15.04.18 280 (З) 10 км  {дождь}  10/6 300 м средняя 
[St|As op]
+4.4 +1.3 80 +3  1011.1  2.5  751  298           
15 15.04.18 280 (З) 10 км    ясно 
+3.7 -1.2 70 +3  1012.1  0.9  752  299           
18 15.04.18 200 (Ю) 10 км    ясно 
+1.1 -2.4 77 1012.7  0.5  752  302           
00 16.04.18 210 (ЮЗ) 20000 м    ясно 
+7.8 +1.6 65 +7  1014.4  1.2  754  295           
03 16.04.18 100 (В) 20000 м    3/3 600 м 
[Cu med, cong]
+8.1 +1.3 62 +7  1014.3  0.1  754  295           
06 16.04.18 100 (В) 20000 м    3/3 600 м 
[Cu med, cong]
+8 +0.8 60 +6  1013.4  -0.9  753  295           
09 16.04.18 060 (СВ) 20000 м    ясно 
+8.9 -0.5 52 +10  1012.6  -0.8  752  294    +12.1       
12 16.04.18 210 (ЮЗ) 20000 м    ясно 
+7 -2.5 51 +6  1015  2.3  754  297           
15 16.04.18 220 (ЮЗ) 20000 м    ясно 
+3 -2.5 67 +1  1015.2  0.1  754  301           
18 16.04.18 210 (ЮЗ) 5{10}  20000 м    ясно 
+2.6 -2.5 69 1014.7  -0.5  754  301           
21 16.04.18 220 (ЮЗ) 7-11{11}  20000 м    4/0 верхняя 
[Ci fib]
+3.1 -1.2 73 1014.7  754  300  +2.3        замёрзшая 
15 17.04.18 210 (ЮЗ) 5{13}  20000 м    8/0 средняя 
[Ac As]
+5.1 +3.5 89 +3  1012.5  0.1  752  297           
21 17.04.18 220 (ЮЗ) 8-11{12}  20000 м    10/8 300 м средняя 
[St|Ac As]
+5.5 +4.2 91 +2  1011.1  -0.3  751  296  +4.9        сухая 
03 18.04.18 210 (ЮЗ) 5{13}  20000 м    5/1 1000 м средняя, верхняя 
[Cu hum|Ac trans|Cc]
+14.9 +4.3 49 +14  1009.6  -1  750  286           
06 18.04.18 210 (ЮЗ) 20000 м    1/0 верхняя 
[Ci fib]
+18.3 +4.2 39 +19  1007.6  -1.9  749  282           
12 18.04.18 210 (ЮЗ) 4{10}  20000 м    ясно 
+6.5 +4.1 85 +5  1008.6  0.8  749  294           
15 18.04.18 210 (ЮЗ) 10 км    10/4 300 м верхняя 
[St|Ci fib]
+4.9 +4.3 96 +3  1008.2  -0.4  749  296           
18 18.04.18 210 (ЮЗ) 1000 м  дымка  10/10 300 м 
[St]
+3.8 +3.5 98 +2  1006.9  -1.3  748  297           
03 19.04.18 220 (ЮЗ) 10 км  слаб. дождь  10/4 300 м средняя 
[Frnb|As op]
+9.8 +8.4 91 +9  1008.3  0.7  749  290           
06 19.04.18 130 (ЮВ) 4000 м  слаб. ливневой дождь  10/10 300 м кучево-дожд. 
[Cb cap]
+10.8 +9.8 94 +13  1008.5  0.2  749  289           
12 19.04.18 280 (З) 4000 м  дымка{ливн. осадки, морось}  4/0 верхняя 
[Ci fib]
+9.8 +7.1 83 +10  1014.1  3.1  754  292           
15 19.04.18 230 (ЮЗ) 2000 м  дымка  ясно 
+5.5 +4.7 95 +4  1015.8  1.5  755  297           
Время (UTC), дата Ветер
(°,м/с) 
Видим.   Явления Облачность Т
(°С)
Тd
(°С)
f(%) Тe
(°С)
Pmin
(гПа)
dP
(гПа)
Po
(мм)
O2
(г/м3)
Тmin Tmax R s Состояние
почвы

Для получения пояснительной информации подведите курсор к названию столбца.

ПОГОДА в Астраханке - архив

Всё, что Вы хотите узнать о погоде в Астраханке - удобно и подробно!

Выберите нужную дату (начиная с 1 января 2015* года) и нажмите кнопку "Найти".
Будут отображены архивные сводки погоды по пункту Астраханка, начиная с указанной даты.


Отображать данные в формате CSV (для использования в таблицах Excel)


Внимание! Наш архив погоды предназначен исключительно для личного некоммерческого использования в познавательных целях. Если Вам необходимы официальные справки о состоянии погоды (для производственных, юридических, коммерческих и т.п. целей), обращайтесь в органы Росгидромета.

*Примечание: данная дата относится к архиву по метеостанциям СССР (Россия, СНГ, Балтия).
Архив по метеостанциям Зарубежной Европы и Азии (кроме Китая) хранится 10 дней, по другим регионам земного шара (Китай, Африка, Америка, Австралия, Океания) - 1 день.

Астраханка - район местоположения метеостанции


Название, широта, долгота, высота метеостанции:
Астраханка 44.7°ш. 132.1°д. 78 м над ур. моря [Российская Федерация]

Дополнительная информация

В oтличие oт бoльшинства пoгoдных сайтoв мы публикуем пoдрoбную метеoинфoрмацию в детальнoм прoфессиoнальнoм фoрмате.

Характеристики температуры и влажнoсти вoздуха измеряются на высoте 2 м в тени вдали oт зданий и деревьев.
Скoрoсть ветра измеряется на высoте 10 м (на урoвне рoста челoвека скoрoсть ветра ниже в 1.5-2 раза). Если метеoстанция нахoдится в гoрoде или в лесу, тo скoрoсть ветра занижена на 2-4 м/с пo сравнению с oткрытым местoм. Скoрoсть ветра над акватoриями крупных рек и oзёр, а также на вершинах хoлмoв на 2-5 м/с выше, чем в oбычных услoвиях.
Атмoсфернoе давление в разных тoчках местнoсти мoжет значительнo oтличаться oт давления на метеoстанции, в зависимoсти oт услoвий рельефа (при пoдъёме на 10 м давление пoнижается примернo на 1 мм рт.ст.).